FW1502 Weather Reports


Display with metric or nautical units.
time (UTC)temp
F
wind
direction
speed
MPH
gust
MPH
rain 1hr
in
rain 24hr
in
rain mn
in
humidity
%
barometer
mb
20201001140219 69 161 4.0 10.0 0.00 0.00 0.00 81 1015.6
20201001134621 69 190 5.0 9.0 0.00 0.00 0.00 82 1015.8
20201001133138 69 171 4.0 9.0 0.00 0.00 0.00 82 1015.7
20201001131613 68 220 3.0 9.0 0.00 0.00 0.00 79 1015.9
20201001130212 67 194 4.0 8.0 0.00 0.00 0.00 79 1015.8
20201001124719 66 224 3.0 8.0 0.00 0.00 0.00 81 1015.7
20201001123118 65 163 3.0 9.0 0.00 0.00 0.00 81 1015.7
20201001121615 65 179 3.0 10.0 0.00 0.00 0.00 82 1015.6
20201001120121 64 250 4.0 10.0 0.00 0.00 0.00 82 1015.4
20201001114603 64 218 3.0 9.0 0.00 0.00 0.00 83 1015.3
20201001113100 63 173 2.0 11.0 0.00 0.00 0.00 84 1015.2
20201001111626 63 234 2.0 7.0 0.00 0.00 0.00 84 1015.0
20201001110132 63 216 3.0 9.0 0.00 0.00 0.00 84 1015.0
20201001104546 63 253 4.0 8.0 0.00 0.00 0.00 84 1015.0
20201001103134 64 250 4.0 9.0 0.00 0.00 0.00 83 1014.9
20201001101605 64 220 4.0 8.0 0.00 0.00 0.00 83 1014.9
20201001100102 64 238 2.0 7.0 0.00 0.00 0.00 83 1014.8
20201001094557 64 218 2.0 8.0 0.00 0.00 0.00 82 1014.8
20201001093033 64 209 4.0 8.0 0.00 0.00 0.00 81 1014.8
20201001091542 65 250 3.0 9.0 0.00 0.00 0.00 81 1014.7
20201001090050 65 216 3.0 6.0 0.00 0.00 0.00 80 1014.7
20201001084554 65 233 3.0 8.0 0.00 0.00 0.00 80 1014.8
20201001083056 65 219 4.0 10.0 0.00 0.00 0.00 80 1014.8
20201001081521 65 194 3.0 9.0 0.00 0.00 0.00 80 1014.8
20201001080038 65 211 1.0 7.0 0.00 0.00 0.00 80 1014.9
20201001074527 65 221 3.0 7.0 0.00 0.00 0.00 79 1014.9
20201001073035 65 236 3.0 8.0 0.00 0.00 0.00 79 1015.0
20201001070023 66 221 3.0 11.0 0.00 0.03 0.00 77 1015.1
20201001064636 66 214 3.0 10.0 0.00 0.03 0.00 77 1015.3
20201001063055 66 223 2.0 8.0 0.00 0.03 0.00 76 1015.4
20201001061509 66 218 4.0 11.0 0.00 0.03 0.00 76 1015.5
20201001060019 66 206 2.0 9.0 0.00 0.14 0.00 76 1015.6
20201001054527 66 183 3.0 9.0 0.00 0.14 0.00 76 1015.8
20201001053016 66 171 5.0 10.0 0.00 0.14 0.00 76 1015.8
20201001051514 66 209 4.0 9.0 0.00 0.14 0.00 78 1015.8
20201001050033 65 200 3.0 9.0 0.00 0.40 0.00 78 1015.8
20201001044504 66 219 3.0 11.0 0.00 0.40 0.00 78 1015.8
20201001043009 66 229 2.0 11.0 0.00 0.40 0.00 78 1015.6
20201001041753 65 217 2.0 6.0 0.00 0.40 0.00 79 1015.8
20201001040226 65 219 2.0 8.0 0.00 0.40 0.00 79 1015.9
20201001034652 65 223 3.0 8.0 0.00 0.44 0.40 79 1015.8
20201001033140 65 254 1.0 4.0 0.00 0.44 0.40 78 1015.7
20201001031708 65 225 2.0 5.0 0.00 0.44 0.40 77 1015.7
20201001030215 64 203 2.0 7.0 0.00 0.44 0.40 76 1015.8
20201001024622 64 221 2.0 9.0 0.00 0.44 0.40 76 1015.7
20201001023146 64 245 2.0 6.0 0.00 0.44 0.40 76 1015.7
20201001021737 64 228 3.0 7.0 0.00 0.44 0.40 77 1015.6
20201001020213 64 238 3.0 8.0 0.00 0.44 0.40 77 1015.6
20201001014759 64 246 3.0 8.0 0.00 0.44 0.40 77 1015.5
20201001013137 64 255 2.0 8.0 0.00 0.44 0.40 77 1015.5
20201001011633 64 229 2.0 7.0 0.00 0.44 0.40 77 1015.4
20201001010138 65 254 2.0 5.0 0.00 0.44 0.40 75 1015.5
20201001004611 65 259 3.0 7.0 0.00 0.44 0.40 74 1015.3
20201001003226 65 244 3.0 7.0 0.00 0.44 0.40 75 1015.2
20201001001640 65 211 2.0 5.0 0.00 0.44 0.40 74 1014.9
20201001000128 65 240 3.0 7.0 0.00 0.44 0.40 73 1014.8
20200930234658 66 247 3.0 9.0 0.00 0.45 0.40 70 1014.7
20200930233058 66 236 3.0 9.0 0.00 0.45 0.40 69 1014.5
20200930231616 66 246 4.0 8.0 0.00 0.45 0.40 68 1014.3
20200930230142 67 259 5.0 10.0 0.00 0.45 0.40 66 1014.1
20200930224625 68 243 4.0 11.0 0.00 0.45 0.40 64 1013.9
20200930223107 69 244 5.0 10.0 0.00 0.45 0.40 61 1013.5
20200930221537 70 233 7.0 13.0 0.00 0.45 0.40 57 1013.4
20200930220103 71 245 5.0 12.0 0.00 0.45 0.40 58 1013.4
20200930214549 71 223 6.0 14.0 0.00 0.47 0.40 57 1013.2
20200930213102 72 234 6.0 14.0 0.00 0.47 0.40 56 1013.1
20200930211551 72 234 4.0 17.0 0.00 0.47 0.40 56 1013.0
20200930210048 72 243 4.0 15.0 0.00 0.47 0.40 56 1012.9
20200930204531 72 219 6.0 14.0 0.00 0.47 0.40 56 1012.7
20200930203115 73 213 5.0 12.0 0.00 0.47 0.40 56 1012.7
20200930201631 73 204 6.0 12.0 0.00 0.47 0.40 56 1012.7
20200930200110 73 241 7.0 13.0 0.00 0.47 0.40 57 1012.6
20200930194613 72 219 6.0 14.0 0.00 0.47 0.40 64 1012.8
20200930193054 73 271 2.0 11.0 0.00 0.47 0.40 64 1012.8
20200930191609 73 270 6.0 13.0 0.00 0.47 0.40 60 1012.9
20200930190100 72 257 5.0 11.0 0.00 0.47 0.40 63 1013.0
20200930184641 71 264 4.0 17.0 0.00 0.47 0.40 62 1013.0
20200930183033 72 236 8.0 14.0 0.00 0.47 0.40 61 1012.9
20200930181603 71 261 8.0 14.0 0.00 0.47 0.40 62 1013.0
20200930180135 71 252 9.0 16.0 0.00 0.47 0.40 62 1013.1
20200930174529 71 244 5.0 12.0 0.00 0.47 0.40 64 1013.2
20200930173039 70 257 6.0 13.0 0.00 0.47 0.40 64 1013.3
20200930171531 70 234 6.0 11.0 0.00 0.47 0.40 69 1013.3
20200930170026 70 250 6.0 11.0 0.00 0.47 0.40 70 1013.4
20200930164545 70 253 7.0 13.0 0.00 0.47 0.40 69 1013.4
20200930163104 70 244 8.0 12.0 0.00 0.47 0.40 69 1013.3
20200930161553 69 259 8.0 16.0 0.00 0.47 0.40 71 1013.5
20200930160112 69 270 6.0 12.0 0.00 0.47 0.40 74 1013.3
20200930154531 68 200 6.0 12.0 0.00 0.47 0.40 74 1013.4
20200930153123 68 304 7.0 16.0 0.00 0.47 0.40 75 1013.4
20200930151518 67 259 13.0 17.0 0.00 0.47 0.40 75 1013.6
20200930150041 67 259 10.0 17.0 0.00 0.47 0.40 77 1013.7
20200930144533 67 280 10.0 15.0 0.00 0.53 0.40 78 1013.5
20200930143025 67 225 9.0 14.0 0.00 0.53 0.40 79 1013.3
20200930141531 66 259 8.0 16.0 0.00 0.53 0.40 80 1013.2